TimeMST,TemperatureF,Dew PointF,Humidity,Sea Level PressureIn,VisibilityMPH,Wind Direction,Wind SpeedMPH,Gust SpeedMPH,PrecipitationIn,Events,Conditions,WindDirDegrees,DateUTC
12:55 AM,33.6,17.6,52,29.97,10.0,Variable,4.6,-,N/A,,Clear,0,2012-11-29 07:55:00
1:55 AM,31.3,18.3,59,29.94,10.0,Calm,Calm,-,N/A,,Clear,0,2012-11-29 08:55:00
2:55 AM,27.9,18.9,69,29.94,10.0,Calm,Calm,-,N/A,,Scattered Clouds,0,2012-11-29 09:55:00
3:55 AM,27.5,20.5,75,29.91,10.0,South,5.8,-,N/A,,Clear,190,2012-11-29 10:55:00
4:55 AM,28.0,19.6,71,29.91,10.0,Calm,Calm,-,N/A,,Clear,0,2012-11-29 11:55:00
5:55 AM,25.7,20.8,82,29.91,10.0,West,5.8,-,N/A,,Clear,280,2012-11-29 12:55:00
6:55 AM,25.2,20.3,82,29.92,10.0,West,5.8,-,N/A,,Clear,260,2012-11-29 13:55:00
7:55 AM,27.0,20.7,77,29.91,10.0,NW,5.8,-,N/A,,Overcast,310,2012-11-29 14:55:00
8:55 AM,28.8,22.1,76,29.93,10.0,North,11.5,-,N/A,,Mostly Cloudy,350,2012-11-29 15:55:00
9:55 AM,30.2,22.8,74,29.96,10.0,NNW,5.8,-,N/A,,Scattered Clouds,340,2012-11-29 16:55:00
10:55 AM,33.8,24.3,68,29.94,10.0,North,15.0,-,N/A,,Scattered Clouds,360,2012-11-29 17:55:00
11:55 AM,37.6,25.0,60,29.93,10.0,North,9.2,-,N/A,,Clear,360,2012-11-29 18:55:00
12:55 PM,42.3,25.9,52,29.92,10.0,North,11.5,-,N/A,,Clear,10,2012-11-29 19:55:00
1:55 PM,43.7,27.0,52,29.92,10.0,NE,8.1,-,N/A,,Clear,40,2012-11-29 20:55:00
2:55 PM,43.3,25.3,49,29.96,10.0,Calm,Calm,-,N/A,,Clear,0,2012-11-29 21:55:00
3:55 PM,40.6,25.3,54,30.00,10.0,Calm,Calm,-,N/A,,Clear,0,2012-11-29 22:55:00
4:55 PM,38.3,25.7,61,30.01,10.0,Calm,Calm,-,N/A,,Clear,0,2012-11-29 23:55:00
5:55 PM,36.9,26.2,65,30.06,10.0,West,4.6,-,N/A,,Clear,260,2012-11-30 00:55:00
6:55 PM,32.7,25.9,76,30.06,10.0,West,6.9,-,N/A,,Clear,280,2012-11-30 01:55:00
7:55 PM,33.1,26.6,77,30.06,10.0,WNW,6.9,-,N/A,,Clear,300,2012-11-30 02:55:00
8:55 PM,33.6,28.0,80,30.05,10.0,NW,8.1,-,N/A,,Clear,320,2012-11-30 03:55:00
9:55 PM,32.9,28.2,83,30.05,10.0,WNW,6.9,-,N/A,,Clear,290,2012-11-30 04:55:00
10:55 PM,33.1,27.9,81,30.05,10.0,WSW,6.9,-,N/A,,Clear,240,2012-11-30 05:55:00
11:55 PM,34.5,28.0,77,30.04,10.0,WSW,6.9,-,N/A,,Clear,240,2012-11-30 06:55:00